Theta_e
307 310 311 311 313 314 316 317 317 318 318 317 316 317 317 319 320 322 324 324 325 322 319 317 318 317 315 314 315 315 314 315 316 315 315 318 320 324 327 328 330 331 333
308 310 310 311 314 315 316 317 317 318 318 316 319 318 318 319 320 321 326 327 324 322 320 319 318 317 315 314 315 315 315 314 316 313 312 309 314 324 327 327 329 330 333
308 310 310 311 313 315 316 317 317 317 318 318 319 318 318 318 319 319 320 321 322 323 322 320 318 317 315 314 314 315 316 314 316 316 314 311 308 318 324 327 327 331 331
309 311 311 309 313 314 316 318 318 317 317 321 318 316 315 314 316 317 318 319 322 323 322 321 318 317 316 314 314 317 316 316 314 316 320 318 318 315 316 325 326 329 329
309 310 310 311 313 314 315 317 318 316 319 319 318 318 315 316 317 317 316 317 320 324 322 320 318 317 316 315 316 316 316 316 316 317 319 321 320 321 321 317 321 327 329
308 310 311 311 311 313 315 316 315 317 318 319 319 318 316 316 314 315 315 315 316 322 319 320 318 317 316 318 318 317 317 317 318 319 321 320 318 317 320 319 321 321 326
309 310 310 310 311 312 314 314 313 316 318 319 319 317 317 317 315 314 314 313 314 317 315 317 317 316 318 319 318 318 318 317 319 320 320 320 320 324 323 322 321 320 324
309 310 311 311 311 312 314 315 313 315 315 318 318 316 318 315 314 315 315 314 314 314 315 318 319 320 321 321 320 320 320 319 319 320 321 321 322 326 326 323 321 318 320
309 310 311 310 311 312 313 314 313 312 313 317 317 317 318 315 316 315 315 314 315 317 317 318 319 321 321 321 322 322 322 322 321 321 321 325 323 326 327 326 325 320 316
309 311 311 309 310 312 313 313 314 313 313 317 317 319 321 318 316 316 316 315 315 316 317 318 319 320 320 322 322 321 326 326 324 322 324 326 325 325 326 325 324 323 321
310 311 310 310 309 310 310 311 314 312 314 316 316 322 320 320 318 317 316 316 315 317 317 319 320 320 320 321 320 322 325 325 326 326 324 325 325 324 324 325 325 323 323
310 310 310 308 307 308 307 310 313 312 314 315 316 320 321 320 318 317 316 316 316 317 319 320 321 321 320 320 322 321 322 325 325 325 325 324 325 324 324 324 323 323 324
309 308 309 309 308 308 308 312 312 312 312 314 315 319 319 319 317 316 317 317 317 318 320 321 321 321 321 321 320 321 320 321 325 325 326 325 324 324 324 324 324 324 324
311 310 309 309 308 309 310 313 313 312 312 312 317 318 317 318 318 318 318 318 319 319 319 320 323 322 322 322 321 320 322 323 324 325 326 324 325 324 324 324 324 324 323
309 310 309 309 308 308 310 311 314 312 313 311 317 318 316 318 319 319 319 319 319 320 321 322 322 322 322 323 320 320 320 322 323 325 326 325 324 322 322 325 324 324 323
311 311 311 310 310 310 310 311 313 311 312 311 317 317 316 318 319 316 317 318 318 319 321 320 321 321 324 306 312 320 323 324 323 324 324 323 321 318 315 316 316 321 322
312 311 311 310 310 312 313 311 312 310 311 310 315 317 316 318 318 317 317 317 315 314 316 316 317 318 317 304 307 313 324 323 322 324 324 325 324 323 324 313 313 314 313
312 313 313 312 310 311 312 312 311 311 311 310 313 313 314 317 316 315 316 313 311 312 312 312 313 317 315 303 306 312 324 323 323 324 325 324 323 322 322 322 321 318 317
314 314 315 314 311 310 312 312 309 311 312 311 312 311 314 315 314 313 314 311 310 309 310 310 312 314 312 302 302 316 323 322 321 322 323 324 323 307 306 318 313 307 307
314 314 315 314 311 310 311 312 309 311 311 312 312 311 313 316 314 314 313 311 310 309 310 309 309 307 309 299 302 315 319 316 317 317 316 309 317 300 299 313 308 306 304
313 314 314 313 311 311 312 311 308 310 313 314 312 310 311 317 315 314 314 311 310 309 308 308 306 305 308 306 301 305 318 316 312 313 311 310 300 297 297 303 309 307 304
311 313 313 313 312 312 312 311 308 310 313 313 313 310 308 317 317 315 314 313 311 308 307 306 305 305 302 301 299 301 306 306 311 311 310 305 296 296 296 302 299 297 301
312 314 314 312 312 312 313 311 311 308 310 312 312 310 308 312 318 315 314 314 312 310 308 307 305 306 303 299 297 298 298 300 308 310 306 296 294 294 295 294 293 296 303
312 314 314 311 310 312 313 314 312 310 309 310 309 310 309 310 317 318 317 316 314 312 312 309 306 306 304 300 295 299 302 301 304 300 298 296 296 296 295 295 297 301 306
313 315 314 312 312 313 313 314 313 311 309 309 308 307 311 313 316 317 316 318 318 316 315 314 313 308 306 303 298 297 300 304 302 296 295 294 295 295 293 291 293 298 306
315 315 315 314 313 313 313 313 315 313 310 308 307 307 310 314 317 316 308 296 298 302 300 302 310 312 306 299 295 293 294 294 293 296 294 293 294 297 296 295 295 298 303
Wind_Speed
3 8 11 12 12 9 9 8 9 7 4 2 2 0 3 2 2 2 5 5 3 5 5 3 4 4 4 4 4 3 4 2 2 3 2 3 3 4 3 3 2 3 2
4 7 12 14 13 11 9 8 8 7 4 2 2 2 2 2 1 2 3 3 5 5 4 5 4 5 3 4 5 4 3 2 3 3 3 2 3 3 2 3 3 5 3
11 12 14 13 11 12 10 9 8 8 4 4 2 1 1 1 2 1 2 1 3 4 5 5 4 4 4 4 4 5 5 4 1 3 4 3 3 2 1 2 3 5 5
7 12 15 12 12 9 8 8 8 7 5 6 2 3 2 1 1 1 1 1 1 3 4 4 5 5 3 4 5 4 3 4 4 0 1 2 4 4 3 2 3 4 6
10 15 14 12 8 8 8 7 7 6 6 5 4 3 2 1 0 1 2 1 2 2 3 4 4 3 3 4 5 5 4 3 4 3 2 2 2 2 4 3 4 4 6
10 10 8 9 7 6 7 7 8 5 6 5 4 5 4 4 2 1 1 1 1 2 2 3 3 2 3 5 4 4 4 3 2 3 4 3 3 3 4 3 5 5 5
11 14 16 10 8 8 7 7 7 6 5 4 5 4 5 5 4 3 2 1 1 1 2 2 3 1 1 3 4 4 4 3 2 2 2 2 3 3 4 3 3 2 4
9 12 13 10 9 9 8 8 8 5 5 5 5 4 5 3 2 2 2 2 3 3 2 4 3 2 4 4 5 3 3 2 2 3 3 3 3 8 7 4 7 4 3
11 13 11 9 9 9 9 9 7 5 6 6 5 4 5 4 4 3 3 2 4 2 3 3 4 4 4 3 5 4 5 4 4 4 5 4 3 5 8 7 6 5 4
9 10 9 9 7 8 7 7 7 8 5 6 5 5 5 5 5 4 4 4 3 2 3 3 3 4 4 4 5 5 5 5 4 4 8 6 5 6 6 7 7 4 6
12 12 9 8 8 7 7 7 6 6 5 5 4 5 5 5 5 4 4 4 3 3 3 2 4 4 5 4 6 5 5 6 6 6 8 8 8 7 7 7 7 7 7
13 11 11 9 8 8 7 7 6 6 6 5 5 5 6 5 5 5 5 4 4 3 4 4 4 5 5 5 7 6 5 6 7 6 9 10 8 9 9 8 8 7 6
10 9 8 10 9 8 7 7 7 7 6 5 5 6 5 5 4 4 5 4 5 5 4 4 5 5 6 6 5 6 6 5 5 6 7 9 11 9 9 10 9 7 7
13 11 9 9 8 8 8 7 6 7 6 6 6 6 6 5 5 5 6 5 5 6 5 4 5 6 5 6 6 7 8 6 5 5 6 6 9 11 11 9 10 9 8
11 13 11 10 8 8 7 7 6 7 6 6 6 7 6 5 6 6 5 6 5 4 5 6 5 5 5 4 6 6 6 6 6 6 6 6 8 12 7 8 9 11 7
15 14 12 11 11 11 9 7 7 7 6 7 7 6 6 5 7 6 6 6 6 4 5 5 6 6 3 9 10 8 6 6 6 7 7 8 11 11 14 15 9 9 9
17 16 16 14 12 11 11 9 8 6 7 7 6 6 6 6 6 7 6 6 5 4 4 5 6 5 5 9 10 10 6 6 5 7 8 7 6 8 8 7 8 7 3
17 16 14 12 12 10 8 7 8 8 8 7 7 6 6 6 7 7 6 5 4 5 5 4 5 6 5 9 10 10 6 6 6 7 7 8 8 5 6 5 3 1 4
19 15 14 14 12 12 10 9 8 8 8 8 7 7 6 7 7 7 7 4 5 3 4 4 6 7 6 8 10 7 5 5 6 5 5 6 6 8 8 5 3 1 1
16 15 13 12 12 11 10 12 10 10 11 10 9 7 7 7 7 8 7 4 4 5 5 5 4 7 6 9 11 8 4 5 4 4 3 6 6 9 8 6 6 6 3
17 13 13 15 16 13 13 13 11 14 13 10 7 8 7 9 7 7 5 6 5 6 5 5 3 6 5 6 9 12 5 5 4 4 3 3 7 10 10 7 5 4 6
13 14 14 14 12 14 15 13 14 13 12 11 9 8 8 7 7 8 5 6 7 7 6 5 3 2 4 6 8 10 9 8 6 5 4 4 7 8 9 8 6 9 7
17 16 16 14 13 15 16 15 14 12 12 11 11 8 8 7 9 8 7 5 6 6 5 5 4 3 2 2 4 7 10 10 5 4 6 10 8 10 7 7 9 8 5
14 14 14 13 14 15 16 17 13 14 14 13 11 8 9 7 6 6 8 7 6 5 6 5 5 4 4 4 2 3 4 6 6 8 6 5 5 4 7 5 3 3 4
13 14 16 15 16 16 16 13 14 14 14 13 10 9 9 10 7 6 7 8 8 10 8 6 7 6 5 6 9 9 6 5 6 8 4 3 2 3 3 2 3 3 4
14 14 15 14 14 15 15 14 15 15 14 12 10 9 8 8 8 7 3 8 4 9 10 11 9 5 10 14 16 14 10 13 17 4 4 4 5 6 5 5 4 3 4
Wind_Direction
189 154 148 145 143 148 146 162 149 181 144 177 211 328 255 290 284 235 239 219 200 213 200 215 207 180 198 199 188 153 178 205 112 119 41 34 13 211 131 117 158 163 107
119 144 151 151 161 151 156 156 162 169 172 169 204 171 207 250 252 295 253 227 212 215 193 196 193 184 174 179 176 168 135 171 175 141 104 90 8 7 64 219 157 144 109
178 164 162 156 150 156 161 161 169 169 179 191 122 81 359 20 23 322 292 274 225 213 182 196 190 178 173 182 180 177 161 152 138 216 137 122 189 84 111 173 164 106 124
146 159 160 156 159 166 152 153 161 163 184 178 146 161 180 182 235 251 269 254 231 154 175 194 183 173 171 186 187 187 175 136 149 148 204 181 146 141 142 102 114 149 115
159 162 159 150 164 142 156 159 155 168 185 167 151 160 165 180 124 297 78 321 346 171 176 176 149 159 167 196 187 184 188 166 149 152 154 141 123 101 122 121 140 114 127
122 118 121 143 144 134 140 144 158 185 185 165 169 166 157 147 160 197 112 331 322 66 104 127 139 152 205 174 170 169 175 187 180 154 166 164 153 156 110 112 123 126 125
126 140 156 155 143 149 149 152 162 188 173 187 167 165 153 155 179 180 172 127 112 89 122 115 119 82 132 140 133 159 166 176 217 143 163 116 165 124 86 122 119 115 119
139 156 159 156 151 153 155 161 178 175 169 185 182 147 154 156 168 151 136 152 121 144 158 107 97 83 83 111 142 126 143 108 98 125 131 130 147 140 141 128 138 117 79
151 158 158 155 151 155 166 171 175 170 183 185 174 167 157 163 154 119 116 148 121 147 144 115 91 73 82 110 119 130 128 120 118 110 91 104 94 125 149 135 139 141 130
143 159 155 157 160 163 166 172 177 182 187 173 191 177 161 175 153 132 141 141 127 132 129 113 100 87 97 103 99 84 112 120 99 104 105 100 97 101 105 123 116 84 125
164 163 157 162 164 158 158 180 180 178 186 176 201 164 154 170 162 144 153 157 145 151 142 124 117 123 126 101 86 82 100 100 103 93 104 102 109 112 105 112 115 119 112
163 157 158 150 156 167 162 180 187 186 195 185 186 158 154 155 166 153 163 169 155 149 152 132 115 120 114 115 112 98 101 95 93 109 115 114 116 107 112 119 116 111 115
144 144 150 160 169 174 166 174 178 188 177 166 146 139 151 152 161 148 149 162 145 137 139 130 128 133 132 120 97 108 99 99 91 106 104 122 118 113 115 119 115 107 107
160 156 159 168 173 180 166 169 181 181 169 160 144 153 156 159 140 131 144 142 137 132 130 123 121 128 123 113 112 109 117 114 73 79 96 103 122 125 124 121 116 120 111
164 171 169 174 175 178 173 171 176 174 165 157 150 178 130 149 120 120 135 121 123 133 132 120 104 105 117 127 118 108 108 108 95 86 76 88 94 101 109 125 126 130 131
176 178 169 175 180 183 182 173 175 177 159 160 168 171 138 143 132 127 144 137 136 129 139 125 123 137 140 129 123 117 114 111 109 105 99 105 103 95 96 88 97 134 144
178 178 178 179 184 186 179 176 177 161 163 165 170 165 165 148 148 140 141 143 139 130 132 131 122 129 127 140 122 114 105 113 108 119 116 108 111 105 111 121 106 105 140
180 188 180 175 182 181 180 162 150 167 167 167 171 172 162 153 144 144 145 131 114 124 136 134 123 117 118 133 132 117 105 106 108 103 105 119 131 129 135 118 107 198 232
185 185 180 177 170 173 175 155 155 163 168 174 176 177 159 141 147 157 155 143 126 127 138 140 134 124 141 152 138 129 109 110 117 118 127 140 153 156 137 132 165 180 117
173 180 176 165 165 179 161 160 166 164 180 182 184 176 155 151 162 162 159 154 139 146 134 125 131 137 135 159 157 133 121 120 117 104 138 181 170 158 172 165 156 130 134
174 166 163 171 181 165 163 173 168 180 186 180 170 170 167 157 164 147 151 141 135 132 135 131 129 129 143 158 169 144 146 151 147 155 174 192 191 175 183 172 175 171 151
153 166 171 179 169 167 170 173 184 185 173 170 172 176 170 163 156 153 147 144 138 143 148 137 107 51 120 135 178 164 150 151 148 172 174 167 169 179 172 168 173 148 123
172 173 176 169 167 172 177 179 189 166 167 166 177 179 172 167 160 157 152 141 149 149 160 158 163 176 155 108 100 176 160 160 151 159 164 142 148 130 122 147 152 148 112
170 170 162 168 174 177 184 192 165 169 164 171 178 174 171 171 167 166 165 164 165 162 168 166 178 184 171 172 171 149 145 122 94 99 94 103 120 122 117 116 120 112 145
169 165 173 174 181 178 183 174 170 170 172 175 175 175 180 183 173 178 177 181 189 178 175 187 178 165 191 213 183 169 170 174 149 111 99 118 120 138 139 119 128 130 150
170 170 178 175 174 179 179 175 171 176 173 178 176 176 172 178 181 169 146 37 9 199 195 168 163 199 202 172 182 192 189 147 145 110 152 181 188 180 173 173 174 173 153